TimeEST,TemperatureF,Dew PointF,Humidity,Sea Level PressureIn,VisibilityMPH,Wind Direction,Wind SpeedMPH,Gust SpeedMPH,PrecipitationIn,Events,Conditions,WindDirDegrees,DateUTC
12:53 AM,23.0,21.0,92,30.03,10.0,SW,5.8,-,N/A,,Clear,220,1999-01-16 05:53:00
1:53 AM,23.0,19.0,85,30.01,10.0,SSW,3.5,-,N/A,,Clear,210,1999-01-16 06:53:00
2:53 AM,25.0,19.0,78,30.02,10.0,SSW,4.6,-,N/A,,Scattered Clouds,200,1999-01-16 07:53:00
3:53 AM,27.0,19.0,72,30.01,10.0,SSW,5.8,-,N/A,,Scattered Clouds,210,1999-01-16 08:53:00
4:53 AM,30.0,19.0,64,30.00,10.0,SW,5.8,-,N/A,,Mostly Cloudy,220,1999-01-16 09:53:00
5:53 AM,28.9,21.9,75,29.99,10.0,SSW,9.2,-,N/A,,Mostly Cloudy,210,1999-01-16 10:53:00
6:53 AM,32.0,24.1,73,29.99,10.0,SSW,9.2,-,N/A,,Overcast,210,1999-01-16 11:53:00
7:38 AM,33.8,24.8,70,29.94,10.0,SSW,6.9,-,N/A,,Mostly Cloudy,210,1999-01-16 12:38:00
7:53 AM,34.0,25.0,70,29.98,10.0,SSW,8.1,-,N/A,,Partly Cloudy,210,1999-01-16 12:53:00
8:53 AM,36.0,25.0,64,29.98,10.0,SSW,6.9,-,N/A,,Clear,210,1999-01-16 13:53:00
9:53 AM,39.9,26.1,58,29.96,10.0,SW,10.4,-,N/A,,Clear,230,1999-01-16 14:53:00
10:53 AM,43.0,26.1,51,29.99,10.0,SW,10.4,23.0,N/A,,Clear,220,1999-01-16 15:53:00
11:53 AM,44.1,25.0,47,29.96,10.0,SW,11.5,18.4,N/A,,Clear,220,1999-01-16 16:53:00
12:53 PM,45.0,27.0,49,29.95,10.0,SW,13.8,23.0,N/A,,Clear,230,1999-01-16 17:53:00
1:53 PM,46.0,28.9,51,29.93,10.0,SW,12.7,23.0,N/A,,Clear,220,1999-01-16 18:53:00
2:53 PM,48.0,28.9,48,29.94,10.0,WSW,13.8,19.6,N/A,,Clear,240,1999-01-16 19:53:00
3:53 PM,46.9,30.0,52,29.96,10.0,WSW,9.2,17.3,N/A,,Clear,240,1999-01-16 20:53:00
4:53 PM,46.9,30.0,52,29.99,10.0,SW,9.2,19.6,N/A,,Clear,230,1999-01-16 21:53:00
5:53 PM,46.0,30.0,54,30.01,10.0,SW,8.1,-,N/A,,Clear,220,1999-01-16 22:53:00
6:53 PM,45.0,30.9,58,30.03,10.0,SW,6.9,-,N/A,,Clear,230,1999-01-16 23:53:00
7:53 PM,44.1,30.9,60,30.07,10.0,WSW,4.6,-,N/A,,Mostly Cloudy,240,1999-01-17 00:53:00
8:53 PM,39.9,30.0,68,30.09,10.0,SSW,3.5,-,N/A,,Mostly Cloudy,210,1999-01-17 01:53:00
9:53 PM,39.0,30.0,70,30.10,10.0,SSW,3.5,-,N/A,,Mostly Cloudy,200,1999-01-17 02:53:00
10:53 PM,39.9,30.9,70,30.12,10.0,SSW,4.6,-,N/A,,Overcast,210,1999-01-17 03:53:00
11:53 PM,41.0,32.0,70,30.12,10.0,SW,3.5,-,N/A,,Mostly Cloudy,230,1999-01-17 04:53:00